Flag for Benin Weather past 2 weeks in Cotonou, Benin

Now
79 °F

Passing clouds.


Feels Like: 83 °F
Forecast: 75 / 83 °F
Wind: 10 mph from Southwest

Location: Cotonou Airport

Current Time: Jul 26, 2014 at 4:38:47 AM

Latest Report: Jul 26, 2014 at 3:00 AM


Visibility: 5 mi

Pressure: 29.92 "Hg

Humidity: 100%

Dew point: 79 °F

Location of CotonouLocation

Historic Weather in Cotonou — Graph

°F

Cotonou temperature yesterday

Maximum temperature yesterday: 81 °F (at 2:00 PM)
Minimum temperature yesterday: 77 °F (at 4:00 AM)
Average temperature yesterday: 78 °F

Past Weeks' High & Low Weather Summary

 TemperatureHumidityPressure
High86 °F (Jul 11, 2:00 PM)100% (Jul 14, 12:00 AM)30.01 "Hg (Jul 14, 12:00 AM)
Low73 °F (Jul 16, 2:00 AM)74% (Jul 11, 5:00 PM)29.83 "Hg (Jul 15, 5:00 PM)
Average80 °F92%29.94 "Hg
* Reported Jul 11 3:00 AM — Jul 26 3:00 AM, Cotonou, Weather by CustomWeather, © 2014

Note: Actual official high and low records may vary slightly from our data, if they occured in-between our weather recording intervals... More about our weather records

Advertising

Cotonou weather history for previous 24 hours

 ConditionsComfort  
Time TempWeatherWind HumidityBarometerVisibility
3:00 AM
Jul 26
79 °FPassing clouds.10 mph100%29.92 "Hg5 mi
2:00 AM77 °FPassing clouds.10 mph100%29.92 "Hg5 mi
1:00 AM77 °FPassing clouds.9 mph100%29.95 "Hg5 mi
12:00 AM79 °FPassing clouds.10 mph94%29.95 "Hg5 mi
11:00 PM
Jul 25
79 °FPassing clouds.10 mph94%29.95 "Hg5 mi
10:00 PM77 °FPassing clouds.9 mph100%29.95 "Hg5 mi
9:00 PM77 °FPassing clouds.9 mph100%29.95 "HgN/A
8:00 PM77 °FPartly cloudy.9 mph100%29.92 "HgN/A
7:00 PM77 °FBroken clouds.12 mph100%29.92 "HgN/A
6:00 PM77 °FBroken clouds.9 mph100%29.89 "HgN/A
5:00 PM79 °FBroken clouds.12 mph100%29.89 "HgN/A
4:00 PM81 °FBroken clouds.14 mph89%29.89 "HgN/A
3:00 PM79 °FPartly sunny.14 mph100%29.92 "HgN/A
2:00 PM81 °FPartly sunny.13 mph94%29.95 "HgN/A
1:00 PM77 °FLight rain. Partly sunny.13 mph100%29.95 "Hg5 mi
12:00 PM77 °FDrizzle. Partly sunny.10 mph100%29.98 "Hg5 mi
11:00 AM77 °FDrizzle. Partly sunny.13 mph100%29.98 "Hg4 mi
10:00 AM79 °FDrizzle. Partly sunny.14 mph94%29.98 "Hg4 mi
9:00 AM79 °FBroken clouds.13 mph94%29.98 "Hg5 mi
8:00 AM79 °FBroken clouds.14 mph94%29.95 "Hg5 mi
7:00 AM77 °FBroken clouds.8 mph100%29.95 "Hg5 mi
6:00 AM77 °FPassing clouds.13 mph100%29.92 "Hg5 mi
5:00 AM79 °FPassing clouds.14 mph94%29.92 "Hg5 mi
4:00 AM77 °FPassing clouds.13 mph100%29.92 "Hg5 mi
Weather by CustomWeather, © 2014

See weather overviewHow to use our weather pages